Amelia, Virginia, United States
Lat: 37.37N, Lon: 77.92W
Wx Zone: VAZ068
Local Info
Past Weather Observations for Tuesday, August 25, 2015

NOTE: This archive is for the closest National Weather Service station to Amelia. Information may differ from the station used for current weather conditions.

Click here for Long-term Archive

Time Weather Temperature Dewpoint Humidity Pressure Winds Precip Visibility
23:55
Clear
66°F / 19°C 66°F / 19°C 100% 29.95 in
(1014 mb)
Calm - 7SM
23:35
Clear
66°F / 19°C 66°F / 19°C 100% 29.95 in
(1014 mb)
NW 3.5 mph
(NW 6 kph)
- 10SM
23:15
Clear
66°F / 19°C 66°F / 19°C 100% 29.95 in
(1014 mb)
Calm - 7SM
22:55
Clear
66°F / 19°C 66°F / 19°C 100% 29.95 in
(1014 mb)
Calm - 7SM
22:35
Clear
66°F / 19°C 66°F / 19°C 100% 29.95 in
(1014 mb)
Calm - 7SM
22:15
Clear
68°F / 20°C 68°F / 20°C 100% 29.95 in
(1014 mb)
Calm - 10SM
21:55
Clear
68°F / 20°C 68°F / 20°C 100% 29.95 in
(1014 mb)
Calm - 10SM
21:35
Clear
68°F / 20°C 68°F / 20°C 100% 29.95 in
(1014 mb)
Calm - 10SM
21:15
Clear
68°F / 20°C 68°F / 20°C 100% 29.95 in
(1014 mb)
Calm - 7SM
20:55
Clear
68°F / 20°C 68°F / 20°C 100% 29.95 in
(1014 mb)
Calm - 10SM
20:35
Clear
70°F / 21°C 70°F / 21°C 100% 29.95 in
(1014 mb)
Calm - 10SM
20:15
Clear
70°F / 21°C 70°F / 21°C 100% 29.92 in
(1013 mb)
Calm - 10SM
19:55
Clear
70°F / 21°C 70°F / 21°C 100% 29.92 in
(1013 mb)
Calm - 10SM
19:35
Clear
72°F / 22°C 72°F / 22°C 100% 29.92 in
(1013 mb)
Calm - 10SM
19:15
Partly Cloudy
72°F / 22°C 72°F / 22°C 100% 29.92 in
(1013 mb)
Calm - 10SM
18:55
Partly Cloudy
73°F / 23°C 73°F / 23°C 100% 29.92 in
(1013 mb)
Calm - 10SM
18:35
Partly Cloudy
77°F / 25°C 75°F / 24°C 94% 29.92 in
(1013 mb)
Calm - 10SM
18:15
Clear
79°F / 26°C 75°F / 24°C 89% 29.92 in
(1013 mb)
Calm - 10SM
17:55
Clear
82°F / 28°C 72°F / 22°C 70% 29.92 in
(1013 mb)
ENE 3.5 mph
(ENE 6 kph)
- 10SM
17:35
Clear
84°F / 29°C 72°F / 22°C 66% 29.89 in
(1012 mb)
Calm - 10SM
17:15
Clear
84°F / 29°C 68°F / 20°C 58% 29.89 in
(1012 mb)
Calm - 10SM
16:55
Clear
86°F / 30°C 68°F / 20°C 55% 29.89 in
(1012 mb)
Calm - 10SM
16:35
Clear
86°F / 30°C 68°F / 20°C 55% 29.89 in
(1012 mb)
Calm - 10SM
16:15
Clear
86°F / 30°C 68°F / 20°C 55% 29.89 in
(1012 mb)
NW 3.5 mph
(NW 6 kph)
- 10SM
15:55
Clear
86°F / 30°C 68°F / 20°C 55% 29.89 in
(1012 mb)
WNW 5.8 mph
(WNW 9 kph)
- 10SM
15:35
Clear
86°F / 30°C 68°F / 20°C 55% 29.89 in
(1012 mb)
WNW 3.5 mph
(WNW 6 kph)
- 10SM
15:15
Clear
86°F / 30°C 68°F / 20°C 55% 29.89 in
(1012 mb)
W 4.6 mph
(W 7 kph)
- 10SM
14:55
Clear
86°F / 30°C 68°F / 20°C 55% 29.89 in
(1012 mb)
Calm - 10SM
14:35
Clear
86°F / 30°C 68°F / 20°C 55% 29.89 in
(1012 mb)
N 3.5 mph
(N 6 kph)
- 10SM
14:15
Clear
86°F / 30°C 68°F / 20°C 55% 29.89 in
(1012 mb)
Calm - 10SM
13:55
Clear
86°F / 30°C 68°F / 20°C 55% 29.92 in
(1013 mb)
SSW 5.8 mph
(SSW 9 kph)
- 10SM
13:35
Clear
84°F / 29°C 68°F / 20°C 58% 29.92 in
(1013 mb)
E 4.6 mph
(E 7 kph)
- 10SM
13:15
Clear
84°F / 29°C 68°F / 20°C 58% 29.92 in
(1013 mb)
Calm - 10SM
12:55
Clear
84°F / 29°C 68°F / 20°C 58% 29.92 in
(1013 mb)
NE 4.6 mph
(NE 7 kph)
- 10SM
12:35
Partly Cloudy
84°F / 29°C 66°F / 19°C 55% 29.95 in
(1014 mb)
N 4.6 mph
(N 7 kph)
- 7SM
12:15
Overcast
82°F / 28°C 66°F / 19°C 58% 29.95 in
(1014 mb)
NNW 4.6 mph
(NNW 7 kph)
- 10SM
11:55
Mostly Cloudy
82°F / 28°C 68°F / 20°C 62% 29.95 in
(1014 mb)
NE 5.8 mph
(NE 9 kph)
- 10SM
11:35
Mostly Cloudy
82°F / 28°C 66°F / 19°C 58% 29.95 in
(1014 mb)
N 4.6 mph
(N 7 kph)
- 10SM
11:15
Mostly Cloudy
82°F / 28°C 66°F / 19°C 58% 29.95 in
(1014 mb)
N 4.6 mph
(N 7 kph)
- 10SM
10:55
Clear
81°F / 27°C 68°F / 20°C 66% 29.98 in
(1015 mb)
N 5.8 mph
(N 9 kph)
- 10SM
10:35
Clear
81°F / 27°C 66°F / 19°C 62% 29.98 in
(1015 mb)
NE 5.8 mph
(NE 9 kph)
- 10SM
10:15
Partly Cloudy
79°F / 26°C 66°F / 19°C 65% 29.98 in
(1015 mb)
NNE 6.9 mph
(NNE 11 kph)
- 10SM
09:55
Clear
79°F / 26°C 66°F / 19°C 65% 29.98 in
(1015 mb)
NE 10.4 mph
(NE 17 kph)
- 10SM
09:35
Clear
77°F / 25°C 66°F / 19°C 69% 29.95 in
(1014 mb)
NE 8.1 mph
(NE 13 kph)
- 10SM
09:15
Partly Cloudy
77°F / 25°C 66°F / 19°C 69% 29.95 in
(1014 mb)
NNE 9.2 mph
(NNE 15 kph)
- 10SM
08:55
Mostly Cloudy
75°F / 24°C 68°F / 20°C 78% 29.95 in
(1014 mb)
NNE 9.2 mph
(NNE 15 kph)
- 10SM
08:35
Overcast
75°F / 24°C 66°F / 19°C 74% 29.95 in
(1014 mb)
N 9.2 mph
(N 15 kph)
- 10SM
08:15
Mostly Cloudy
75°F / 24°C 70°F / 21°C 83% 29.95 in
(1014 mb)
NE 8.1 mph
(NE 13 kph)
- 10SM
07:55
Mostly Cloudy
73°F / 23°C 68°F / 20°C 83% 29.95 in
(1014 mb)
NE 11.5 mph
(NE 19 kph)
- 10SM
07:35
Mostly Cloudy
73°F / 23°C 70°F / 21°C 89% 29.95 in
(1014 mb)
NNE 9.2 mph
(NNE 15 kph)
- 10SM
07:15
Overcast
Light Rain
73°F / 23°C 72°F / 22°C 94% 29.95 in
(1014 mb)
NNE 5.8 mph
(NNE 9 kph)
- 10SM
06:55
Mostly Cloudy
73°F / 23°C 72°F / 22°C 94% 29.95 in
(1014 mb)
NNE 4.6 mph
(NNE 7 kph)
0.04 in
(1.02 mm)
10SM
06:35
Overcast
73°F / 23°C 73°F / 23°C 100% 29.95 in
(1014 mb)
N 5.8 mph
(N 9 kph)
0.04 in
(1.02 mm)
10SM
06:15
Overcast
Light Rain
73°F / 23°C 73°F / 23°C 100% 29.95 in
(1014 mb)
NNW 4.6 mph
(NNW 7 kph)
0.04 in
(1.02 mm)
5SM
05:55
Overcast
75°F / 24°C 75°F / 24°C 100% 29.92 in
(1013 mb)
Calm - 7SM
05:35
Mostly Cloudy
73°F / 23°C 73°F / 23°C 100% 29.92 in
(1013 mb)
Calm - 7SM
05:15
Mostly Cloudy
73°F / 23°C 73°F / 23°C 100% 29.89 in
(1012 mb)
Calm - 10SM
04:55
Overcast
73°F / 23°C 73°F / 23°C 100% 29.89 in
(1012 mb)
N 3.5 mph
(N 6 kph)
- 10SM
04:35
Mostly Cloudy
Light Rain
73°F / 23°C 73°F / 23°C 100% 29.89 in
(1012 mb)
NNW 4.6 mph
(NNW 7 kph)
- 10SM
04:15
Mostly Cloudy
Light Rain
73°F / 23°C 73°F / 23°C 100% 29.89 in
(1012 mb)
Calm - 10SM
03:55
Overcast
Light Rain
73°F / 23°C 73°F / 23°C 100% 29.89 in
(1012 mb)
Calm - 7SM
03:35
Overcast
Light Rain
73°F / 23°C 73°F / 23°C 100% 29.89 in
(1012 mb)
Calm - 7SM
03:15
Mostly Cloudy
73°F / 23°C 73°F / 23°C 100% 29.89 in
(1012 mb)
Calm - 7SM
02:55
Mostly Cloudy
73°F / 23°C 73°F / 23°C 100% 29.89 in
(1012 mb)
Calm - 7SM
02:35
Mostly Cloudy
Fog And Mist
73°F / 23°C 73°F / 23°C 100% 29.89 in
(1012 mb)
Calm - 5SM
02:15
Mostly Cloudy
73°F / 23°C 73°F / 23°C 100% 29.89 in
(1012 mb)
Calm - 7SM
01:55
Clear
73°F / 23°C 73°F / 23°C 100% 29.89 in
(1012 mb)
Calm - 7SM
01:35
Mostly Cloudy
73°F / 23°C 73°F / 23°C 100% 29.89 in
(1012 mb)
Calm - 10SM
01:15
Mostly Cloudy
73°F / 23°C 73°F / 23°C 100% 29.89 in
(1012 mb)
Calm - 10SM
00:55
Clear
73°F / 23°C 73°F / 23°C 100% 29.89 in
(1012 mb)
SSE 3.5 mph
(SSE 6 kph)
- 10SM
00:35
Clear
73°F / 23°C 73°F / 23°C 100% 29.89 in
(1012 mb)
SSE 4.6 mph
(SSE 7 kph)
- 10SM
00:15
Clear
73°F / 23°C 73°F / 23°C 100% 29.89 in
(1012 mb)
S 3.5 mph
(S 6 kph)
- 10SM
Time Weather Temperature Dewpoint Humidity Pressure Winds Precip Visibility


Weather for websites

WeatherForYou.com, LLC is not responsible for any damages or problems caused by this service. Current weather conditions are obtained from the closest station including government and personal stations which may have varying degrees of accuracy. Weather forecasts are derived from the NOAA NDFD. Like all things, this site belongs to Jesus Christ... He just trusts us to maintain it. If you have any questions or comments email webmaster@weatherforyou.com

Copyright © 2015, WeatherForYou.com LLC. All rights reserved.